Weather History for Carmi, IL

Change the Weather History Date:

Thursday, November 14, 2013

  Actual Average (KEVV) Record (KEVV)
Temperature  
Mean Temperature 41 °F 47 °F  
Max Temperature 58 °F 57 °F 77 °F (1971)
Min Temperature 24 °F 37 °F 11 °F (1986)
Degree Days  
Heating Degree Days 24 18  
Month to date heating degree days 213  
Since 1 July heating degree days 516  
Cooling Degree Days 0 0  
Month to date cooling degree days 0  
Year to date cooling degree days 1395  
Moisture  
Dew Point 24 °F    
Average Humidity 55    
Maximum Humidity 88    
Minimum Humidity 20    
Precipitation  
Precipitation 0.00 in 0.15 in 2.40 in (1993)
Month to date precipitation 1.88  
Year to date precipitation 39.10  
Snow  
Snow 0.00 in 0.00 in 0.10 in (1992)
Month to date snowfall 0.0  
Since 1 July snowfall 0.2  
Since 1 September snowfall 0.2  
Snow Depth -    
Sea Level Pressure  
Sea Level Pressure 30.25 in    
Wind  
Wind Speed 8 mph (South)    
Max Wind Speed 17 mph    
Max Gust Speed 21 mph    
Visibility 10 miles    
Events      
T = Trace of Precipitation, MM = Missing Value Source: NWS Daily Summary

Daily Weather History Graph

Daily Weather History Graph

Search for Another Location

Airport:

Trip Planner

Search our weather history database for the weather conditions in past years. The results will help you decide how hot, cold, wet, or windy it might be!

Date:

Astronomy

Nov. 14, 2013 Rise Set
Actual Time 6:32 AM CST 4:40 PM CST
Civil Twilight 6:04 AM CST 5:09 PM CST
Nautical Twilight 5:32 AM CST 5:40 PM CST
Astronomical Twilight 5:01 AM CST 6:12 PM CST
Moon 2:59 PM CST (11/14) 3:30 AM CST (11/14)
Length of Visible Light 11h 04m
Length of Day
10h 08m
Waxing Gibbous, 92% of the Moon is Illuminated
Nov 14
Waxing Gibbous
Nov 17
Full
Nov 25
Last Quarter
Dec 2
New
Dec 9
First Quarter

Hourly Weather History & Observations

Time (CST) Temp. Windchill Dew Point Humidity Pressure Visibility Wind Dir Wind Speed Gust Speed Precip Events Conditions
12:15 AM 29.8 °F 23.9 °F 23.5 °F 77% 30.39 in 10.0 mi South 5.8 mph - N/A   Clear
12:35 AM 29.7 °F 26.1 °F 23.7 °F 79% 30.38 in 10.0 mi South 3.5 mph - N/A   Clear
12:55 AM 28.4 °F 23.3 °F 23.4 °F 81% 30.38 in 10.0 mi South 4.6 mph - N/A   Clear
1:15 AM 28.4 °F 22.2 °F 23.5 °F 82% 30.38 in 10.0 mi South 5.8 mph - N/A   Clear
1:35 AM 28.8 °F 25.0 °F 24.4 °F 84% 30.38 in 10.0 mi South 3.5 mph - N/A   Clear
1:55 AM 29.8 °F 24.9 °F 23.4 °F 77% 30.38 in 10.0 mi South 4.6 mph - N/A   Clear
2:15 AM 29.7 °F 22.8 °F 23.0 °F 76% 30.38 in 10.0 mi South 6.9 mph - N/A   Clear
2:35 AM 28.0 °F 21.7 °F 23.4 °F 83% 30.38 in 10.0 mi SE 5.8 mph - N/A   Clear
2:55 AM 27.3 °F 22.0 °F 23.0 °F 84% 30.37 in 10.0 mi SSE 4.6 mph - N/A   Clear
3:15 AM 25.5 °F 21.3 °F 21.7 °F 86% 30.36 in 10.0 mi SSE 3.5 mph - N/A   Clear
3:35 AM 26.1 °F 21.9 °F 22.3 °F 86% 30.36 in 10.0 mi South 3.5 mph - N/A   Clear
3:55 AM 27.9 °F - 23.2 °F 83% 30.36 in 10.0 mi Calm Calm - N/A   Clear
4:15 AM 28.9 °F - 23.0 °F 78% 30.35 in 10.0 mi Calm Calm - N/A   Clear
4:35 AM 27.3 °F - 22.5 °F 82% 30.35 in 10.0 mi Calm Calm - N/A   Clear
4:55 AM 27.1 °F 23.2 °F 22.5 °F 83% 30.35 in 10.0 mi South 3.5 mph - N/A   Clear
5:15 AM 25.7 °F 20.1 °F 22.3 °F 87% 30.35 in 10.0 mi SSE 4.6 mph - N/A   Clear
5:35 AM 24.3 °F 18.4 °F 21.2 °F 88% 30.35 in 10.0 mi South 4.6 mph - N/A   Clear
5:55 AM 25.2 °F 17.3 °F 21.7 °F 87% 30.34 in 10.0 mi SSE 6.9 mph - N/A   Clear
6:15 AM 27.3 °F 19.1 °F 22.6 °F 83% 30.33 in 10.0 mi SSE 8.1 mph - N/A   Clear
6:35 AM 26.6 °F 19.1 °F 22.1 °F 83% 30.33 in 10.0 mi SSE 6.9 mph - N/A   Clear
6:55 AM 27.3 °F 19.9 °F 23.0 °F 84% 30.33 in 10.0 mi SSE 6.9 mph - N/A   Clear
7:15 AM 30.0 °F 23.2 °F 25.2 °F 82% 30.33 in 10.0 mi SSE 6.9 mph - N/A   Clear
7:35 AM 32.4 °F 26.9 °F 27.0 °F 80% 30.34 in 10.0 mi SSE 5.8 mph - N/A   Clear
7:55 AM 34.2 °F 30.0 °F 28.2 °F 79% 30.34 in 10.0 mi South 4.6 mph - N/A   Clear
8:15 AM 36.1 °F 31.4 °F 28.6 °F 74% 30.35 in 10.0 mi South 5.8 mph - N/A   Clear
8:35 AM 39.7 °F 33.2 °F 29.3 °F 66% 30.34 in 10.0 mi South 10.4 mph - N/A   Clear
8:55 AM 41.5 °F 34.6 °F 27.9 °F 58% 30.34 in 10.0 mi South 12.7 mph - N/A   Clear
9:15 AM 43.7 °F 37.3 °F 27.5 °F 53% 30.33 in 10.0 mi South 12.7 mph - N/A   Clear
9:35 AM 45.5 °F 39.2 °F 26.8 °F 48% 30.33 in 10.0 mi South 13.8 mph - N/A   Clear
9:55 AM 47.7 °F - 26.4 °F 44% 30.33 in 10.0 mi SSW 9.2 mph - N/A   Clear
10:15 AM 49.5 °F - 22.1 °F 34% 30.33 in 10.0 mi SW 17.3 mph - N/A   Clear
10:35 AM 50.9 °F - 21.7 °F 32% 30.32 in 10.0 mi South 17.3 mph - N/A   Clear
10:55 AM 51.8 °F - 21.2 °F 30% 30.30 in 10.0 mi SSW 17.3 mph 20.7 mph N/A   Clear
11:15 AM 53.4 °F - 20.8 °F 28% 30.29 in 10.0 mi South 17.3 mph - N/A   Clear
11:35 AM 54.1 °F - 19.8 °F 26% 30.27 in 10.0 mi SSW 13.8 mph - N/A   Clear
11:55 AM 54.7 °F - 19.0 °F 25% 30.26 in 10.0 mi South 16.1 mph 19.6 mph N/A   Clear
12:15 PM 55.4 °F - 18.3 °F 23% 30.25 in 10.0 mi SSW 12.7 mph - N/A   Clear
12:35 PM 56.7 °F - 18.3 °F 22% 30.24 in 10.0 mi South 11.5 mph 20.7 mph N/A   Clear
12:55 PM 57.2 °F - 19.4 °F 23% 30.22 in 10.0 mi South 12.7 mph - N/A   Clear
1:15 PM 58.1 °F - 18.1 °F 21% 30.21 in 10.0 mi South 13.8 mph - N/A   Clear
1:35 PM 58.3 °F - 16.7 °F 20% 30.20 in 10.0 mi South 13.8 mph - N/A   Clear
1:55 PM 57.7 °F - 18.7 °F 22% 30.20 in 10.0 mi South 13.8 mph 18.4 mph N/A   Clear
2:15 PM 58.3 °F - 20.3 °F 23% 30.18 in 10.0 mi South 13.8 mph - N/A   Clear
2:35 PM 58.3 °F - 19.6 °F 22% 30.17 in 10.0 mi South 16.1 mph - N/A   Clear
2:55 PM 57.2 °F - 22.3 °F 26% 30.17 in 10.0 mi South 13.8 mph - N/A   Clear
3:15 PM 55.8 °F - 21.6 °F 27% 30.17 in 10.0 mi South 16.1 mph - N/A   Clear
3:35 PM 56.1 °F - 19.9 °F 24% 30.16 in 10.0 mi South 15.0 mph - N/A   Clear
3:55 PM 54.5 °F - 19.8 °F 26% 30.16 in 10.0 mi South 15.0 mph - N/A   Clear
4:15 PM 51.4 °F - 23.0 °F 33% 30.16 in 10.0 mi South 9.2 mph - N/A   Clear
4:35 PM 49.5 °F - 22.1 °F 34% 30.17 in 10.0 mi South 10.4 mph - N/A   Clear
4:55 PM 45.9 °F 40.8 °F 24.6 °F 43% 30.16 in 10.0 mi South 10.4 mph - N/A   Clear
5:15 PM 44.6 °F 39.2 °F 25.9 °F 48% 30.17 in 10.0 mi South 10.4 mph - N/A   Clear
5:35 PM 45.3 °F 39.7 °F 26.2 °F 47% 30.16 in 10.0 mi South 11.5 mph - N/A   Clear
5:55 PM 45.5 °F 40.3 °F 26.6 °F 48% 30.16 in 10.0 mi South 10.4 mph - N/A   Clear
6:15 PM 44.6 °F 38.8 °F 26.2 °F 49% 30.16 in 10.0 mi South 11.5 mph - N/A   Clear
6:35 PM 43.7 °F 38.1 °F 26.1 °F 50% 30.16 in 10.0 mi South 10.4 mph - N/A   Clear
6:55 PM 42.8 °F 37.0 °F 26.2 °F 52% 30.16 in 10.0 mi SSE 10.4 mph - N/A   Clear
7:15 PM 41.4 °F 35.7 °F 25.7 °F 54% 30.15 in 10.0 mi SSE 9.2 mph - N/A   Clear
7:35 PM 42.3 °F 36.3 °F 26.1 °F 53% 30.15 in 10.0 mi SSE 10.4 mph - N/A   Clear
7:55 PM 42.1 °F 37.1 °F 25.5 °F 52% 30.15 in 10.0 mi SSE 8.1 mph - N/A   Clear
8:15 PM 41.0 °F 35.2 °F 26.6 °F 57% 30.14 in 10.0 mi SSE 9.2 mph - N/A   Clear
8:35 PM 41.9 °F 37.5 °F 26.4 °F 54% 30.15 in 10.0 mi SSE 6.9 mph - N/A   Clear
8:55 PM 41.9 °F 36.3 °F 26.6 °F 55% 30.14 in 10.0 mi SSE 9.2 mph - N/A   Clear
9:15 PM 41.9 °F 36.9 °F 26.4 °F 54% 30.14 in 10.0 mi SSE 8.1 mph - N/A   Clear
9:35 PM 41.5 °F 36.4 °F 26.8 °F 56% 30.14 in 10.0 mi South 8.1 mph - N/A   Clear
9:55 PM 43.9 °F 39.3 °F 25.3 °F 48% 30.14 in 10.0 mi South 8.1 mph - N/A   Clear
10:15 PM 46.0 °F 41.0 °F 23.7 °F 42% 30.14 in 10.0 mi South 10.4 mph - N/A   Clear
10:35 PM 43.2 °F 38.4 °F 25.7 °F 50% 30.14 in 10.0 mi South 8.1 mph - N/A   Clear
10:55 PM 43.2 °F 39.0 °F 26.2 °F 51% 30.13 in 10.0 mi South 6.9 mph - N/A   Clear
11:15 PM 43.2 °F 38.4 °F 26.1 °F 51% 30.13 in 10.0 mi South 8.1 mph - N/A   Clear
11:35 PM 43.0 °F 38.2 °F 26.4 °F 52% 30.13 in 10.0 mi South 8.1 mph - N/A   Clear
11:55 PM 42.3 °F 37.9 °F 25.7 °F 52% 30.14 in 10.0 mi South 6.9 mph - N/A   Clear